Tracking 29892 objects as of 21-Nov-2024
HD Live streaming from Space Station
objects crossing your sky now

FENGYUN 1C DEB

Track FENGYUN 1C DEB now!
10-day predictions


NORAD ID: 33655
Int'l Code: 1999-025DEQ
Perigee: 591.0 km
Apogee: 687.3 km
Inclination: 98.8 °
Period: 97.4 minutes
Semi major axis: 7010 km
RCS: 0.0112 m2 (small)
Launch date: May 10, 1999
Source: People's Republic of China (PRC)
Launch site: Taiyaun Space Center, China (TSC)

Note: This is SATELLITE DEBRIS
Your satellite tracking list
Your tracking list is empty




NASA's NSSDC Master Catalog

Two Line Element Set (TLE):
1 33655U 99025DEQ 24325.50686816  .00023502  00000-0  30450-2 0  9999
2 33655  98.8445 341.0707 0068728 159.3247 201.0767 14.79152237911001
Source of the keplerian elements: AFSPC